Weather in Nikol'skiy

Russia / Saint-Petersburg and Leningrad Oblast     60°54′55″N   34°03′59″E
temp.,
°C
wind,
m/s
gust,
m/s
humid.,
%
clouds,
%
prec.,
mm/h
press.,
hPa
HPBL,
m
17 april, sat
sat1700:00+1ne310925 0.0 1033181
03:000ne27945 0.0 1033134
06:000ne39925 0.0 1033157
09:00+6ene37715 0.0 1033341
12:00+9ene46595 0.0 1033978
15:00+10ene45555 0.0 10321066
18:00+9ne36670 0.0 1032717
21:00+3ne28860 0.0 1032168
18 april, sun
sun1800:00+2ne27890 0.0 1032133
03:00+1ne26912 0.0 1032102
06:00+1ne28922 0.0 1033145
09:00+6ene37690 0.0 1033389
12:00+10ene46595 0.0 10321059
15:00+11ene46545 0.0 10321297
18:00+10ne366544 0.0 1032971
21:00+5ne3985100 0.0 1032239
19 april, mon
mon1900:00+4ene399110 0.0 1033248
03:00+1ene26959 0.0 1033143
06:00+1ene26930 0.0 1034165
09:00+5ene36650 0.0 1034505
12:00+9e46420 0.0 10331123
15:00+10e45398 0.0 10321355
18:00+9ene354827 0.0 10311189
21:00+4ene387176 0.0 1031197
20 april, tue
tue2000:00+2ene2776100 0.0 1031146
03:00+2ene2676100 0.0 1030123
06:00+1ene277993 0.0 1029164
09:00+6ese48520 0.0 1028710
12:00+8ese573799 0.0 10261505
15:00+10ese46355 0.0 10241747
18:00+9e474298 0.0 10221550
21:00+5ene31062100 0.0 1021265
21 april, wed
wed2100:00+4ene31068100 0.0 1017297
03:00+3ene41270100 0.0 1014427
06:00+3ene51369100 0.0 1010604
09:00+1ene51396100 1.4 1007600
12:00+2e51296100 2.2 1005647
15:00+2e41297100 3.3 1002674
18:00+3e41296100 0.4 1000821
21:00+4e41195100 2.1 999972